Details From YBHI - Broken Hill
To YSDU - Dubbo
Flight Number -
Tags decoded
Created
Modified
Stats Distance 362 nm / 670 km
Max Altitude 0 ft / 0 m
Waypoints 3
Social Downloads 156
Likes 0
Share

Download

Looking for another format? Having issues loading an existing format? Contact us
Advertisement - Login to hide

Notes

Requested: YBHI AREST YSDU

Route

YBHI AREST YSDU

ID Type Via Altitude (ft/m) Position (lat/lon) Dist (leg/tot) Name
O YBHI APT - 0 / 0 -32.00500 / 141.47100 - / 0 nm Broken Hill
AREST FIX - 0 / 0 -32.18450 / 145.86300 223 / 223 nm
O YSDU APT - 0 / 0 -32.21750 / 148.57700 137 / 361 nm Dubbo

Altitude Profile

Advertisement - Login to hide

Weather


0- 5 10 15 20 25 30 35+ Temperature / °C

Clouds and Precipitation
Forecast for 2021-01-21 06:00 UTC. Updated an hour ago

Ground ~20,000 ft ~40,000 ft Winds

YBHI

Details ICAO YBHI (BHQ)
Name Broken Hill
Region Australia
Timezone Australia/Broken_Hill (UTC+10.5)
Stats Elevation 958 ft / 292 m (AMSL)
Location -32.005000° 141.471000°
Runways 2
Magnetic Variation 8.399° E

METAR

YBHI 210400Z AUTO 19012KT 180V250 9999 // NCD 34/M03 Q1011

Decode

TAF

Not found

Departure Runways

ID Width Length Bearing (true/mag) Surface Threshold Overrun Markings Lighting
05 98 ft / 30 m 8,242 ft / 2,512 m 55.78° / 47.38° ASPHALT 0 ft / 0 m 0 ft / 0 m PREC-APP EDGE THRESHOLD
14 105 ft / 32 m 3,280 ft / 1,000 m 143.11° / 134.71° DIRT 0 ft / 0 m 0 ft / 0 m NONE
23 98 ft / 30 m 8,242 ft / 2,512 m 235.77° / 227.37° ASPHALT 0 ft / 0 m 0 ft / 0 m PREC-APP EDGE THRESHOLD
32 105 ft / 32 m 3,280 ft / 1,000 m 323.11° / 314.71° DIRT 0 ft / 0 m 0 ft / 0 m NONE

YSDU

Details ICAO YSDU (DBO)
Name Dubbo
Region Australia
Timezone Australia/Sydney (UTC+11.0)
Stats Elevation 935 ft / 285 m (AMSL)
Location -32.217500° 148.577000°
Runways 2
Magnetic Variation 11.088° E

METAR

YSDU 210430Z AUTO 34012KT 340V070 9999 // SCT068 32/13 Q1012

Decode

TAF

TAF TAF YSDU 202311Z 2100/2118 08012KT 9999 BKN035 FM210200 03008KT 9999 -SHRA NSC FM211200 03012KT CAVOK PROB30 INTER 2103/2112 VRB25G40KT 3000 TSRA SCT070CB

Decode

Destination Runways

ID Width Length Bearing (true/mag) Surface Threshold Overrun Markings Lighting
05 148 ft / 45 m 5,605 ft / 1,708 m 53.60° / 42.52° ASPHALT 0 ft / 0 m 0 ft / 0 m PREC-APP CENTERLINE EDGE THRESHOLD
11 59 ft / 18 m 3,498 ft / 1,066 m 119.17° / 108.09° ASPHALT 0 ft / 0 m 0 ft / 0 m APP
23 148 ft / 45 m 5,605 ft / 1,708 m 233.60° / 222.51° ASPHALT 0 ft / 0 m 0 ft / 0 m PREC-APP CENTERLINE EDGE THRESHOLD
29 59 ft / 18 m 3,498 ft / 1,066 m 299.17° / 288.08° ASPHALT 0 ft / 0 m 0 ft / 0 m APP

Popular Alternatives